[[{"header":{"parameterUnit":"m.s-1","parameterCategory":1,"la1":30.2991,"la2":30.254,"lo1":-89.0895,"lo2":-89.0444,"dy":0.0017,"dx":0.0017,"nx":28,"ny":28,"refTime":"2024-08-04T09:00:00:Z","depth":0,"parameterNumber":2,"parameterNumberName":"U-component_of_WINDS"},"data":[0,0,0,0,0,0,0,0,0,0,0,0,0,0,0,0,0,0,0,0,0,0,0,0,0,0,0,0,0,0,0,0,0,0,0,0,0,0,0,0,0,0,0,0,0,0,0,0,0,0,0,0,0,0,0,0,0,0,-0.3777,-0.3776,0,-0.3683,-0.3682,-0.3681,-0.3655,-0.3655,-0.3656,-0.3656,-0.3557,-0.3554,-0.355,0,0,0,0,0,0,0,0,0,0,0,0,0,-0.393,-0.3927,-0.3777,-0.3776,-0.3775,-0.3683,-0.3682,-0.3681,-0.3655,-0.3655,-0.3656,-0.3657,-0.3558,-0.3554,-0.355,0,0,0,0,0,0,0,0,0,0,0,0,0,-0.3852,-0.3926,-0.3777,-0.3751,-0.3748,-0.3683,-0.3682,-0.368,-0.3654,-0.3655,-0.3656,-0.3657,-0.3559,-0.3554,-0.355,-0.3504,0,0,-0.3535,-0.3533,0,0,0,0,0,0,0,0,-0.3857,-0.3847,-0.3756,-0.3753,-0.3749,-0.3681,-0.3699,-0.3621,-0.3654,-0.369,-0.3656,-0.3657,-0.3597,-0.3589,-0.357,-0.3499,-0.3495,-0.3535,-0.3532,-0.353,-0.3528,0,0,0,0,0,0,0,-0.3862,-0.3851,-0.374,-0.3755,-0.375,-0.3742,-0.3732,-0.3684,-0.364,-0.3687,-0.3685,-0.3674,-0.3595,-0.3575,-0.3567,-0.3494,-0.3535,-0.3531,-0.3528,-0.3526,-0.3378,-0.3377,0,0,0,0,0,0,-0.3873,-0.3855,-0.3743,-0.3737,-0.3806,-0.3739,-0.3727,-0.3702,-0.364,-0.3632,-0.3673,-0.3673,-0.3582,-0.3573,-0.3564,-0.3504,-0.353,-0.3525,-0.3523,-0.3379,-0.3378,-0.3377,0,0,0,0,0,0,-0.3876,-0.3863,-0.3746,-0.3795,-0.378,-0.3735,-0.3707,-0.37,-0.3679,-0.363,-0.3622,-0.366,-0.3583,-0.357,-0.3519,-0.35,-0.3523,-0.3519,-0.338,-0.3379,-0.3377,-0.3386,0,0,0,0,0,0,-0.388,-0.3864,-0.3848,-0.3795,-0.3778,-0.3704,-0.3706,-0.3697,-0.3671,-0.367,-0.3616,-0.3608,-0.3582,-0.3526,-0.3514,-0.3494,-0.3515,-0.3382,-0.338,-0.3378,-0.3387,-0.3385,-0.3383,0,0,0,0,0,-0.3886,-0.3854,-0.3847,-0.3833,-0.3756,-0.3703,-0.3693,-0.3665,-0.367,-0.3652,-0.362,-0.3609,-0.3505,-0.3521,-0.3507,-0.3486,-0.3383,-0.338,-0.3378,-0.3388,-0.3385,-0.3383,0,0,0,0,0,0,-0.3904,-0.3846,-0.3838,-0.3788,-0.3751,-0.3699,-0.3675,-0.3664,-0.3623,-0.3624,-0.359,-0.3578,-0.3528,-0.3502,-0.3521,-0.3437,-0.3443,-0.3438,-0.3456,-0.3453,-0.3451,-0.3457,-0.3511,0,0,0,0,0,-0.3902,-0.3866,-0.3817,-0.3777,-0.3759,-0.3721,-0.3697,-0.3679,-0.3638,-0.3622,-0.3587,-0.3547,-0.3505,-0.3478,-0.3436,-0.3384,-0.337,-0.3362,-0.336,-0.3359,-0.3354,-0.3321,-0.3316,-0.3368,-0.3369,-0.3369,0,0,-0.3898,-0.3862,-0.3841,-0.378,-0.3749,-0.371,-0.3707,-0.3667,-0.3637,-0.3615,-0.3564,-0.3537,-0.349,-0.3437,-0.3412,-0.3413,-0.3336,-0.3355,-0.3355,-0.335,-0.3318,-0.3313,-0.3309,-0.3367,-0.3367,-0.3367,0,0,-0.387,-0.384,-0.3803,-0.3772,-0.3725,-0.3699,-0.3691,-0.364,-0.3621,-0.357,-0.3552,-0.3515,-0.3444,-0.3411,-0.3384,-0.3342,-0.333,-0.333,-0.3318,-0.3287,-0.3283,-0.3279,-0.3262,-0.3256,-0.3326,-0.3326,-0.3326,0,-0.387,-0.3812,-0.3785,-0.3745,-0.3717,-0.3697,-0.3657,-0.3628,-0.357,-0.3551,-0.3554,-0.3463,-0.343,-0.3368,-0.3358,-0.3338,-0.3325,-0.3335,-0.3286,-0.3282,-0.3278,-0.3261,-0.3254,-0.3326,-0.3326,-0.3326,-0.3326,0,-0.3813,-0.3773,-0.3748,-0.3693,-0.3663,-0.3624,-0.3589,-0.3562,-0.3546,-0.3519,-0.3465,-0.3425,-0.3375,-0.3359,-0.3343,-0.3293,-0.3296,-0.3293,-0.3298,-0.3273,-0.3257,-0.325,-0.3326,-0.3326,-0.3326,-0.3326,0,0,-0.3793,-0.3723,-0.3714,-0.3688,-0.3635,-0.3602,-0.3561,-0.3512,-0.3488,-0.3449,-0.3411,-0.3351,-0.3348,-0.3318,-0.3298,-0.3271,-0.3237,-0.3271,-0.327,-0.3264,-0.3177,-0.3177,-0.317,-0.3229,-0.3228,-0.3227,-0.318,0,-0.3757,-0.3683,-0.3657,-0.3596,-0.3557,-0.3536,-0.35,-0.3462,-0.3436,-0.3398,-0.3369,-0.3326,-0.3326,-0.3307,-0.328,-0.3247,-0.3219,-0.3251,-0.3192,-0.319,-0.3202,-0.3162,-0.3163,-0.312,-0.3173,-0.3172,-0.3171,0,-0.3704,-0.3664,-0.3599,-0.3549,-0.3531,-0.3499,-0.3451,-0.3416,-0.3372,-0.3355,-0.3321,-0.3303,-0.3256,-0.3266,-0.3201,-0.3223,-0.3197,-0.3177,-0.3175,-0.3167,-0.3178,-0.315,-0.3106,-0.3099,-0.3161,-0.3162,-0.3163,0,-0.3693,-0.3623,-0.3574,-0.3553,-0.3494,-0.3471,-0.3445,-0.3402,-0.3374,-0.3331,-0.3312,-0.3265,-0.3238,-0.3201,-0.317,-0.318,-0.3106,-0.3114,-0.3088,-0.3089,-0.3072,-0.3073,-0.3021,-0.306,-0.306,-0.306,-0.306,0,-0.3653,-0.3614,-0.3568,-0.3538,-0.3492,-0.3462,-0.3417,-0.3389,-0.3351,-0.3314,-0.3294,-0.3259,-0.3221,-0.318,-0.3155,-0.3103,-0.3092,-0.3075,-0.3068,-0.3075,-0.3077,-0.3057,-0.3058,-0.3058,-0.3059,-0.3059,-0.3059,0,-0.3633,-0.3601,-0.3546,-0.3494,-0.348,-0.3449,-0.3403,-0.3372,-0.3346,-0.3298,-0.3285,-0.3243,-0.3194,-0.3159,-0.3097,-0.308,-0.3023,-0.3018,-0.3038,-0.3034,-0.3009,-0.3011,-0.294,-0.2928,-0.2978,-0.2977,-0.2977,0,-0.3608,-0.3577,-0.3522,-0.3496,-0.347,-0.3429,-0.34,-0.3368,-0.3338,-0.3285,-0.326,-0.321,-0.3168,-0.309,-0.3053,-0.3004,-0.2996,-0.2974,-0.2988,-0.2995,-0.2992,-0.2993,-0.2989,-0.2972,-0.2971,-0.2971,-0.2971,0,-0.3568,-0.3553,-0.3513,-0.3466,-0.3432,-0.3394,-0.3355,-0.3334,-0.3296,-0.3263,-0.3213,-0.318,-0.3116,-0.3066,-0.3013,-0.2984,-0.297,-0.2967,-0.2958,-0.2963,-0.2975,-0.2965,-0.3029,-0.2968,-0.2968,-0.2969,-0.2969,-0.2969,-0.3543,-0.3513,-0.3469,-0.3424,-0.3392,-0.3356,-0.3323,-0.3292,-0.3251,-0.3196,-0.318,-0.3127,-0.3082,-0.301,-0.298,-0.2938,-0.2939,-0.2926,-0.2923,-0.2919,-0.2918,-0.2984,-0.2928,-0.2928,-0.2928,-0.2928,-0.2928,0,-0.3499,-0.347,-0.3429,-0.3375,-0.3338,-0.333,-0.3286,-0.3256,-0.321,-0.317,-0.3129,-0.307,-0.3021,-0.2979,-0.2928,-0.2901,-0.2893,-0.2888,-0.2889,-0.2882,-0.2922,-0.2933,-0.2896,-0.2896,-0.2896,-0.2896,-0.2896,-0.2896,-0.3472,-0.3421,-0.3401,-0.3332,-0.3303,-0.3252,-0.3227,-0.3193,-0.316,-0.3096,-0.3055,-0.3029,-0.2987,-0.2932,-0.2885,-0.2874,-0.2855,-0.2851,-0.2838,-0.2876,-0.2879,-0.2883,-0.2893,-0.2848,-0.2848,-0.2801,-0.2801,-0.28]},{"header":{"parameterUnit":"m.s-1","parameterCategory":1,"la1":30.2991,"la2":30.254,"lo1":-89.0895,"lo2":-89.0444,"dy":0.0017,"dx":0.0017,"nx":28,"ny":28,"refTime":"2024-08-04T09:00:00:Z","depth":0,"parameterNumber":3,"parameterNumberName":"V-component_of_WINDS"},"data":[0,0,0,0,0,0,0,0,0,0,0,0,0,0,0,0,0,0,0,0,0,0,0,0,0,0,0,0,0,0,0,0,0,0,0,0,0,0,0,0,0,0,0,0,0,0,0,0,0,0,0,0,0,0,0,0,0,0,-3.3522,-3.3523,0,-3.3618,-3.3619,-3.3621,-3.3694,-3.3695,-3.3696,-3.3696,-3.3794,-3.3796,-3.3798,0,0,0,0,0,0,0,0,0,0,0,0,0,-3.3403,-3.3405,-3.3522,-3.3523,-3.3524,-3.3618,-3.362,-3.3621,-3.3694,-3.3695,-3.3696,-3.3697,-3.3793,-3.3796,-3.3798,0,0,0,0,0,0,0,0,0,0,0,0,0,-3.3473,-3.3406,-3.3522,-3.3572,-3.3578,-3.3618,-3.362,-3.3621,-3.3694,-3.3695,-3.3696,-3.3697,-3.3793,-3.3795,-3.3798,-3.3796,0,0,-3.3807,-3.3809,0,0,0,0,0,0,0,0,-3.3469,-3.3477,-3.3564,-3.3569,-3.3575,-3.3645,-3.3614,-3.368,-3.3694,-3.365,-3.3696,-3.3698,-3.3744,-3.3751,-3.3766,-3.38,-3.3804,-3.3808,-3.3809,-3.3811,-3.3811,0,0,0,0,0,0,0,-3.3464,-3.3473,-3.356,-3.3565,-3.3572,-3.3591,-3.3602,-3.3626,-3.369,-3.3654,-3.3659,-3.367,-3.3747,-3.3763,-3.3769,-3.3806,-3.3808,-3.381,-3.3812,-3.3813,-3.3845,-3.3845,0,0,0,0,0,0,-3.3451,-3.3469,-3.3557,-3.3563,-3.3523,-3.3592,-3.3604,-3.3622,-3.369,-3.3701,-3.3669,-3.3673,-3.3758,-3.3766,-3.3773,-3.3775,-3.3811,-3.3813,-3.3815,-3.3846,-3.3845,-3.3844,0,0,0,0,0,0,-3.3448,-3.3458,-3.3553,-3.3518,-3.3531,-3.3593,-3.3612,-3.3623,-3.364,-3.3701,-3.3713,-3.3674,-3.3759,-3.3769,-3.379,-3.378,-3.3815,-3.3817,-3.3847,-3.3846,-3.3845,-3.3779,0,0,0,0,0,0,-3.3444,-3.3457,-3.3455,-3.3517,-3.3533,-3.3568,-3.3611,-3.3624,-3.3645,-3.3651,-3.3709,-3.3719,-3.3761,-3.3785,-3.3793,-3.3784,-3.382,-3.3849,-3.3847,-3.3845,-3.3782,-3.3775,-3.3769,0,0,0,0,0,-3.344,-3.3432,-3.3455,-3.3465,-3.3532,-3.3567,-3.3576,-3.3624,-3.3643,-3.3643,-3.3683,-3.3718,-3.378,-3.3787,-3.3796,-3.3788,-3.3849,-3.3847,-3.3845,-3.3785,-3.3777,-3.377,0,0,0,0,0,0,-3.3366,-3.3441,-3.3467,-3.3479,-3.3516,-3.3579,-3.358,-3.3613,-3.3645,-3.3649,-3.3708,-3.372,-3.3735,-3.3765,-3.3771,-3.3791,-3.3819,-3.3819,-3.377,-3.3763,-3.3757,-3.3748,-3.3822,0,0,0,0,0,-3.3352,-3.3373,-3.3438,-3.3442,-3.346,-3.3517,-3.3533,-3.3568,-3.3608,-3.3624,-3.3666,-3.3704,-3.3733,-3.375,-3.378,-3.3788,-3.3802,-3.3788,-3.3781,-3.3776,-3.3774,-3.3782,-3.3776,-3.3838,-3.3838,-3.3838,0,0,-3.3321,-3.3365,-3.3374,-3.3429,-3.3461,-3.3483,-3.3529,-3.3549,-3.3566,-3.3627,-3.3649,-3.3682,-3.3729,-3.3744,-3.3753,-3.3769,-3.3761,-3.3773,-3.3768,-3.3769,-3.3779,-3.3774,-3.3768,-3.3836,-3.3837,-3.3837,0,0,-3.3276,-3.3311,-3.3319,-3.3352,-3.3402,-3.3441,-3.3443,-3.3502,-3.3526,-3.355,-3.3597,-3.3619,-3.3667,-3.3699,-3.3721,-3.3693,-3.3726,-3.3702,-3.3667,-3.3675,-3.367,-3.3666,-3.3656,-3.3651,-3.37,-3.37,-3.37,0,-3.3231,-3.3265,-3.3319,-3.3337,-3.336,-3.3419,-3.3428,-3.3458,-3.3514,-3.3529,-3.3547,-3.361,-3.3645,-3.367,-3.3663,-3.368,-3.3684,-3.3693,-3.3666,-3.3663,-3.366,-3.3651,-3.3647,-3.3697,-3.3697,-3.3697,-3.3698,0,-3.3208,-3.3231,-3.3232,-3.3286,-3.331,-3.3323,-3.338,-3.3398,-3.3432,-3.3469,-3.3494,-3.354,-3.3581,-3.359,-3.3622,-3.3619,-3.3628,-3.3655,-3.3685,-3.365,-3.3642,-3.3639,-3.3692,-3.3693,-3.3694,-3.3695,0,0,-3.3114,-3.3202,-3.3201,-3.3227,-3.3289,-3.3308,-3.3326,-3.3367,-3.3381,-3.342,-3.3436,-3.3478,-3.3504,-3.353,-3.3567,-3.3574,-3.355,-3.3601,-3.3603,-3.3589,-3.355,-3.3528,-3.3523,-3.3574,-3.3573,-3.3573,-3.3546,0,-3.3077,-3.3111,-3.3162,-3.318,-3.3203,-3.3261,-3.3277,-3.3317,-3.3354,-3.3379,-3.3421,-3.3448,-3.3482,-3.3498,-3.3508,-3.355,-3.3542,-3.3553,-3.3589,-3.359,-3.3573,-3.3519,-3.3494,-3.3466,-3.3544,-3.3543,-3.3543,0,-3.3037,-3.3074,-3.3093,-3.3156,-3.3168,-3.3181,-3.3224,-3.3248,-3.3296,-3.3322,-3.3353,-3.3394,-3.3418,-3.3447,-3.348,-3.3486,-3.3505,-3.3529,-3.3529,-3.3532,-3.3562,-3.3518,-3.3458,-3.3453,-3.3539,-3.3539,-3.354,0,-3.2965,-3.302,-3.3039,-3.3061,-3.3134,-3.3142,-3.3173,-3.3223,-3.3245,-3.3284,-3.3299,-3.334,-3.3361,-3.3392,-3.3444,-3.3461,-3.3472,-3.3505,-3.3495,-3.3493,-3.3491,-3.349,-3.3431,-3.3507,-3.3507,-3.3507,-3.3507,0,-3.2917,-3.2926,-3.3008,-3.302,-3.3033,-3.3094,-3.3106,-3.3143,-3.3187,-3.3207,-3.3262,-3.328,-3.3349,-3.3376,-3.3417,-3.3439,-3.3449,-3.3471,-3.3481,-3.3464,-3.3461,-3.3475,-3.3477,-3.3506,-3.3506,-3.3506,-3.3507,0,-3.2836,-3.2892,-3.2917,-3.2986,-3.3004,-3.3011,-3.3071,-3.3085,-3.3127,-3.3153,-3.3163,-3.3228,-3.3263,-3.3319,-3.337,-3.3399,-3.3412,-3.3431,-3.3395,-3.3401,-3.3387,-3.3387,-3.3333,-3.3329,-3.3408,-3.3408,-3.3407,0,-3.28,-3.2809,-3.2881,-3.2899,-3.2928,-3.2957,-3.2981,-3.3043,-3.3065,-3.3123,-3.3131,-3.3171,-3.3205,-3.3259,-3.3311,-3.3351,-3.337,-3.3349,-3.3376,-3.336,-3.3369,-3.3366,-3.3368,-3.3341,-3.334,-3.3339,-3.3338,0,-3.2729,-3.2758,-3.279,-3.2833,-3.2861,-3.2897,-3.2937,-3.2949,-3.302,-3.3043,-3.308,-3.3107,-3.3161,-3.32,-3.3249,-3.3282,-3.3322,-3.333,-3.333,-3.3311,-3.3289,-3.33,-3.3376,-3.333,-3.3331,-3.3331,-3.3332,-3.3332,-3.2669,-3.2681,-3.2733,-3.2769,-3.2806,-3.2842,-3.286,-3.2906,-3.2937,-3.2986,-3.3022,-3.3057,-3.3109,-3.3178,-3.321,-3.3239,-3.3256,-3.3256,-3.3255,-3.3253,-3.3247,-3.3288,-3.3248,-3.3249,-3.3249,-3.3249,-3.325,0,-3.26,-3.2638,-3.2671,-3.2725,-3.2753,-3.2792,-3.2838,-3.2859,-3.2889,-3.2935,-3.2969,-3.3013,-3.3052,-3.311,-3.3154,-3.3166,-3.3185,-3.3175,-3.3173,-3.3181,-3.3229,-3.3224,-3.3159,-3.3159,-3.3159,-3.3159,-3.3159,-3.3159,-3.2567,-3.2589,-3.2624,-3.2666,-3.2705,-3.274,-3.2763,-3.2798,-3.2835,-3.2881,-3.2915,-3.2953,-3.3004,-3.3053,-3.3091,-3.3108,-3.312,-3.3104,-3.3125,-3.3169,-3.3177,-3.3185,-3.3181,-3.3107,-3.3107,-3.3075,-3.3074,-3.3074]}]]